Regional Weather Roundup
Issued by NWS

Home | Current Version | Previous Version | Graphics & Text | Print | Product List | Glossary On
Versions: 1 2 3 4 5 6 7 8 9 10 11 12 13 14 15 16 17 18 19 20 21 22 23 24 25 26 27 28 29 30 31 32 33 34 35 36 37 38 39 40 41 42 43 44 45 46 47 48 49 50
000
ASUS45 KBOU 270407
RWRCO

WEATHER ROUNDUP FOR COLORADO
NATIONAL WEATHER SERVICE DENVER/BOULDER CO
1000 PM MDT WED AUG 26 2015

NOTE: "FAIR" INDICATES FEW OR NO CLOUDS BELOW 12000 FEET WITH NO
SIGNIFICANT WEATHER AND/OR OBSTRUCTIONS TO VISIBILITY.

COZ001>005-013-030-031-270500-
...NORTHWEST COLORADO...

CITY           SKY/WX    TMP DP  RH WIND       PRES   REMARKS
CRAIG          CLOUDY    60  57  89 SE7       30.33S
HAYDEN         NOT AVBL
MEEKER         LGT RAIN  62  60  93 VRB3      30.34R
MOUNT WERNER   NOT AVBL
STEAMBOAT SPGS CLOUDY    58  56  91 NE5       30.37F
WALDEN         CLOUDY    55  46  71 CALM      30.43R
$$

COZ006>008-011-270500-
...WEST CENTRAL VALLEYS...

CITY           SKY/WX    TMP DP  RH WIND       PRES   REMARKS
GRAND JUNCTION CLOUDY    64  62  93 W3        30.24R
MONTROSE       CLOUDY    66  52  60 E5        30.31R
EAGLE          MOCLDY    64  48  55 S5        30.34R
RIFLE          CLOUDY    64  60  87 CALM      30.29R
DELTA          RAIN      69  59  70 SW3       30.27R
NUCLA          CLOUDY    66  55  68 CALM      30.34R
$$

COZ017>023-064>068-270500-
...SOUTHWEST COLORADO...

CITY           SKY/WX    TMP DP  RH WIND       PRES   REMARKS
DURANGO        LGT RAIN  58  54  86 E5        30.43R
CORTEZ         MOCLDY    65  58  78 W5        30.30S
PAGOSA SPRINGS LGT RAIN  58  57  97 CALM      30.50R
TELLURIDE      CLOUDY    57  49  76 CALM      30.53S
WOLF CREEK PAS RAIN      43  43 100 SW21G29   30.75S VSB 1/4
$$

COZ009-010-012-014-032>034-037-058>063-270500-
...CENTRAL COLORADO...

CITY           SKY/WX    TMP DP  RH WIND       PRES   REMARKS
ASPEN          CLOUDY    61  45  55 S5        30.40S
BUENA VISTA    MOCLDY    53  48  82 CALM      30.44R
COPPER MTN     CLOUDY    48  36  61 S12       30.69S
BERTHOUD PASS  FAIR      41  30  65 N8        30.74S
COTTONWOOD PAS MOCLDY    54  43  66 W5        30.55R
GUNNISON       MOCLDY    55  50  82 CALM      30.48R
KREMMLING      CLOUDY    61  46  59 NW3       30.39R
LEADVILLE      MOCLDY    47  40  76 NE6       30.54R
MONARCH PASS   MOCLDY    41  37  87 SW22      30.79R
SALIDA         MOCLDY    58  49  71 CALM      30.48S
SUNLIGHT       LGT RAIN  50  46  87 CALM      30.63S
WILKERSON PASS MOCLDY    45  37  76 W9        30.64S
$$

COZ069>075-270500-
...SAN LUIS VALLEY/SANGRE DE CRISTO MOUNTAINS...

CITY           SKY/WX    TMP DP  RH WIND       PRES   REMARKS
ALAMOSA        CLOUDY    54  51  90 W5        30.45R
LA VETA PASS   CLOUDY    50  43  76 SW7G18    30.58S
SAGUACHE       CLOUDY    52  50  93 N7        30.48S
$$

COZ035-036-038>040-270500-
...NORTHERN COLORADO FRONT RANGE...

CITY           SKY/WX    TMP DP  RH WIND       PRES   REMARKS
DENVER INTL AP MOCLDY    76  43  30 S18       30.13R
DMNS CITY PARK   N/A     76  42  30 W3G12     30.14R
AURORA         MOCLDY    74  43  31 S13       30.17R
FRONT RANGE AP NOT AVBL
ERIE MUNI ARPT PTCLDY    71  45  38 CALM      30.13R
BOULDER MUN AP PTCLDY    72  46  40 W5        30.13S
CENTENNIAL     MOCLDY    72  43  35 S8        30.19R
BROOMFIELD     MOCLDY    75  43  31 N8        30.17R
FORT COLLINS   PTCLDY    73  46  38 N10       30.12R
LONGMONT       PTCLDY    69  49  49 NW5       30.13S
$$

COZ041-046-047-076>085-087-088-270500-
...PIKES PEAK/PALMER DIVIDE AND SOUTHERN FOOTHILLS...

CITY           SKY/WX    TMP DP  RH WIND       PRES   REMARKS
COLO. SPRINGS  MOCLDY    67  43  41 N5        30.21F
A. F. ACADEMY  MOCLDY    65  41  41 N8        30.24F
ELLICOTT       MOCLDY   N/A N/A N/A SE9       30.21F
FALCON         MOCLDY    64  42  43 W8        30.27F
FORT CARSON    NOT AVBL
LIMON          CLOUDY    71  44  37 SW7       30.17R
MONUMENT HILL  MOCLDY    63  37  39 W10       30.29F
TRINIDAD       CLOUDY    73  48  41 S20G30    30.28R
$$

COZ042>045-048>051-090-091-270500-
...NORTHEAST COLORADO...

CITY           SKY/WX    TMP DP  RH WIND       PRES   REMARKS
GREELEY ARPT   PTCLDY    70  46  43 N10       30.09S
AKRON          PTCLDY    75  41  29 S9        30.10R
BURLINGTON     MOCLDY    76  47  35 S13       30.13R
WRAY           MOCLDY    82  42  25 S17       30.06R
STERLING       PTCLDY    70  45  40 SW7       30.02S
HOLYOKE        MOCLDY    77  45  31 S9        30.05S
FORT MORGAN    PTCLDY    72  37  28 SE8       30.07S
$$

COZ086-089-092>099-270500-
...SOUTHEAST COLORADO...

CITY           SKY/WX    TMP DP  RH WIND       PRES   REMARKS
PUEBLO         MOCLDY    73  49  42 S7        30.13R
LA JUNTA       CLOUDY    80  46  30 SW7       30.13R
LAMAR          CLOUDY    84  48  28 S20       30.08S
SPRINGFIELD      N/A     76  52  43 S15       30.20R
$$



USA.gov is the U.S. government's official web portal to all federal, state and local government web resources and services.